This is the latest recevied weather packets stored in our database for station/object WX5KDM. If no packets are shown the sender has not sent any weather packets the latest 10 day(s).
| Time | Temp. | Humidity | Pressure | Rain* | Wind** | Luminosity | Snow |
|---|---|---|---|---|---|---|---|
| 1788619575 | 31.67° C | 71% | 1015.3 hPa | 0 mm | - | - | - |
| 1788619273 | 32.22° C | 71% | 1015.3 hPa | 0 mm | - | - | - |
| 1788618994 | 31.67° C | 72% | 1015.3 hPa | 0 mm | - | - | - |
| 1788618663 | 31.11° C | 72% | 1015.2 hPa | 0 mm | - | - | - |
| 1788618362 | 30.56° C | 74% | 1015.2 hPa | 0 mm | - | - | - |
| 1788618061 | 30.56° C | 76% | 1015.4 hPa | 0 mm | - | - | - |
| 1788617761 | 30° C | 77% | 1015.4 hPa | 0 mm | - | - | - |
| 1788617458 | 30° C | 76% | 1015.5 hPa | 0 mm | - | - | - |
| 1788617153 | 30° C | 76% | 1015.4 hPa | 0 mm | - | - | - |
| 1788616852 | 30° C | 77% | 1015.2 hPa | 0 mm | - | - | - |
| 1788616548 | 30° C | 77% | 1015.4 hPa | 0 mm | - | - | - |
| 1788616247 | 29.44° C | 78% | 1015.4 hPa | 0 mm | - | - | - |
| 1788615943 | 28.89° C | 78% | 1015.4 hPa | 0 mm | - | - | - |
| 1788615668 | 28.89° C | 80% | 1015.4 hPa | 0 mm | - | - | - |
| 1788615337 | 28.33° C | 82% | 1015.3 hPa | 0 mm | - | - | - |
| 1788615036 | 28.33° C | 82% | 1015.4 hPa | 0 mm | - | - | - |
| 1788614736 | 27.78° C | 84% | 1015.4 hPa | 0 mm | - | - | - |
| 1788614431 | 28.33° C | 82% | 1015.3 hPa | 0 mm | - | - | - |
| 1788614127 | 27.78° C | 83% | 1015.2 hPa | 0 mm | - | - | - |
| 1788613822 | 27.78° C | 85% | 1015.4 hPa | 0 mm | - | - | - |
| 1788613521 | 27.22° C | 85% | 1015.3 hPa | 0 mm | - | - | - |
| 1788613216 | 27.78° C | 85% | 1015.5 hPa | 0 mm | - | - | - |
| 1788612910 | 27.78° C | 83% | 1015.4 hPa | 0 mm | - | - | - |
| 1788612606 | 27.78° C | 82% | 1015.4 hPa | 0 mm | - | - | - |
| 1788612297 | 26.67° C | 86% | 1015.3 hPa | 0 mm | - | - | - |
* Rain latest hour (hover to see other rain measurements)
** Current wind speed in m/s (hover to see current wind gust speed)